H1 CPF 2 NER 2023 11 29 9 333 01 glonass127 H2 1106403 9127 37869 2023 11 29 0 0 0 2023 12 2 23 45 0 900 1 1 0 0 0 1 H9 10 0 60277 0.00000 0 -21336209.279 -12978583.535 5146852.202 10 0 60277 900.00000 0 -21778902.815 -13100244.518 1965584.281 10 0 60277 1800.00000 0 -21891315.637 -12986436.908 -1253939.450 10 0 60277 2700.00000 0 -21643526.599 -12684065.641 -4449028.518 10 0 60277 3600.00000 0 -21017683.742 -12246065.807 -7557373.480 10 0 60277 4500.00000 0 -20008928.681 -11728959.473 -10518277.262 10 0 60277 5400.00000 0 -18625788.139 -11190266.238 -13273860.541 10 0 60277 6300.00000 0 -16890013.053 -10685878.901 -15770215.521 10 0 60277 7200.00000 0 -14835869.556 -10267517.681 -17958483.219 10 0 60277 8100.00000 0 -12508909.978 -9980373.398 -19795830.996 10 0 60277 9000.00000 0 -9964274.650 -9861042.068 -21246309.227 10 0 60277 9900.00000 0 -7264595.838 -9935840.742 -22281568.683 10 0 60277 10800.00000 0 -4477592.358 -10219577.811 -22881423.487 10 0 60277 11700.00000 0 -1673456.764 -10714831.074 -23034247.988 10 0 60277 12600.00000 0 1077854.130 -11411764.646 -22737199.716 10 0 60277 13500.00000 0 3709310.841 -12288492.268 -21996264.464 10 0 60277 14400.00000 0 6159371.485 -13311970.809 -20826123.468 10 0 60277 15300.00000 0 8374303.333 -14439384.814 -19249846.509 10 0 60277 16200.00000 0 10310169.055 -15619961.887 -17298418.458 10 0 60277 17100.00000 0 11934395.840 -16797140.384 -15010110.177 10 0 60277 18000.00000 0 13226863.792 -17910996.090 -12429707.900 10 0 60277 18900.00000 0 14180470.856 -18900823.956 -9607617.935 10 0 60277 19800.00000 0 14801153.973 -19707764.905 -6598865.814 10 0 60277 20700.00000 0 15107369.242 -20277366.423 -3462010.978 10 0 60277 21600.00000 0 15129056.686 -20561969.137 -257999.306 10 0 60277 22500.00000 0 14906136.578 -20522819.614 2951023.345 10 0 60277 23400.00000 0 14486603.518 -20131821.744 6102913.148 10 0 60277 24300.00000 0 13924300.632 -19372854.710 9136722.676 10 0 60277 25200.00000 0 13276468.849 -18242604.055 11993865.220 10 0 60277 26100.00000 0 12601174.661 -16750872.711 14619227.656 10 0 60277 27000.00000 0 11954723.992 -14920360.392 16962212.098 10 0 60277 27900.00000 0 11389169.506 -12785921.369 18977688.245 10 0 60277 28800.00000 0 10950014.194 -10393331.740 20626840.272 10 0 60277 29700.00000 0 10674205.477 -7797616.765 21877894.279 10 0 60277 30600.00000 0 10588501.919 -5061006.228 22706714.350 10 0 60277 31500.00000 0 10708279.351 -2250600.449 23097257.508 10 0 60277 32400.00000 0 11036825.401 564159.187 23041880.028 10 0 60277 33300.00000 0 11565151.808 3314113.517 22541489.735 10 0 60277 34200.00000 0 12272333.115 5932997.239 21605541.151 10 0 60277 35100.00000 0 13126359.166 8359933.620 20251872.645 10 0 60277 36000.00000 0 14085468.007 10541711.248 18506387.052 10 0 60277 36900.00000 0 15099906.083 12434749.951 16402579.766 10 0 60277 37800.00000 0 16114044.765 14006674.963 13980920.831 10 0 60277 38700.00000 0 17068767.005 15237433.706 11288100.283 10 0 60277 39600.00000 0 17904025.856 16119907.698 8376148.767 10 0 60277 40500.00000 0 18561468.457 16659992.565 5301448.222 10 0 60277 41400.00000 0 18987015.162 16876141.013 2123650.088 10 0 60277 42300.00000 0 19133284.219 16798386.145 -1095478.915 10 0 60277 43200.00000 0 18961757.822 16466884.680 -4293261.288 10 0 60277 44100.00000 0 18444595.396 15930040.471 -7407339.572 10 0 60277 45000.00000 0 17566014.287 15242287.203 -10376908.277 10 0 60277 45900.00000 0 16323176.059 14461624.446 -13143921.145 10 0 60277 46800.00000 0 14726537.618 13647012.493 -15654248.096 10 0 60277 47700.00000 0 12799649.334 12855738.079 -17858756.884 10 0 60277 48600.00000 0 10578406.368 12140864.724 -19714296.141 10 0 60277 49500.00000 0 8109783.144 11548878.054 -21184558.521 10 0 60277 50400.00000 0 5450103.479 11117628.064 -22240805.404 10 0 60277 51300.00000 0 2662919.095 10874657.290 -22862437.819 10 0 60277 52200.00000 0 -183413.874 10835986.957 -23037401.743 10 0 60277 53100.00000 0 -3018357.733 11005413.070 -22762419.753 10 0 60277 54000.00000 0 -5771904.466 11374342.054 -22043044.885 10 0 60277 54900.00000 0 -8377260.935 11922172.032 -20893536.490 10 0 60277 55800.00000 0 -10773395.073 12617202.139 -19336561.732 10 0 60277 56700.00000 0 -12907336.604 13418029.522 -17402730.076 10 0 60277 57600.00000 0 -14736136.806 14275372.807 -15129971.530 10 0 60277 58500.00000 0 -16228406.821 15134242.805 -12562772.603 10 0 60277 59400.00000 0 -17365372.413 15936366.745 -9751286.691 10 0 60277 60300.00000 0 -18141403.930 16622762.036 -6750337.922 10 0 60277 61200.00000 0 -18564002.645 17136349.811 -3618339.441 10 0 60277 62100.00000 0 -18653247.657 17424497.516 -416148.416 10 0 60277 63000.00000 0 -18440730.127 17441383.522 2794119.122 10 0 60277 63900.00000 0 -17968022.800 17150084.920 5950290.128 10 0 60277 64800.00000 0 -17284751.711 16524301.931 8991329.893 10 0 60277 65700.00000 0 -16446352.890 15549648.010 11858508.397 10 0 60277 66600.00000 0 -15511609.138 14224453.134 14496516.229 10 0 60277 67500.00000 0 -14540070.254 12560048.052 16854510.186 10 0 60277 68400.00000 0 -13589463.982 10580518.613 18887070.405 10 0 60277 69300.00000 0 -12713204.608 8321940.767 20555052.756 10 0 60277 70200.00000 0 -11958101.490 5831127.678 21826322.407 10 0 60277 71100.00000 0 -11362361.211 3163939.798 22676356.535 10 0 60277 72000.00000 0 -10953964.869 383225.999 23088706.351 10 0 60277 72900.00000 0 -10749486.759 -2443521.523 23055310.788 10 0 60277 73800.00000 0 -10753402.885 -5246704.555 22576656.409 10 0 60277 74700.00000 0 -10957918.170 -7957246.573 21661780.260 10 0 60277 75600.00000 0 -11343320.341 -10509205.095 20328114.734 10 0 60277 76500.00000 0 -11878847.290 -12842263.194 18601175.802 10 0 60277 77400.00000 0 -12524033.757 -14903998.753 16514098.465 10 0 60277 78300.00000 0 -13230483.400 -16651838.420 14107025.868 10 0 60277 79200.00000 0 -13943994.365 -18054615.213 11426361.150 10 0 60277 80100.00000 0 -14606951.215 -19093664.222 8523893.939 10 0 60277 81000.00000 0 -15160884.045 -19763409.286 5455816.127 10 0 60277 81900.00000 0 -15549087.627 -20071414.309 2281644.258 10 0 60277 82800.00000 0 -15719189.664 -20037894.987 -936931.581 10 0 60277 83700.00000 0 -15625558.367 -19694709.617 -4137250.280 10 0 60277 84600.00000 0 -15231445.272 -19083869.914 -7256909.789 10 0 60277 85500.00000 0 -14510769.703 -18255633.794 -10234999.579 10 0 60278 0.00000 0 -13449466.138 -17266260.560 -13013309.492 10 0 60278 900.00000 0 -12046333.345 -16175523.432 -15537490.733 10 0 60278 1800.00000 0 -10313347.634 -15044087.313 -17758140.329 10 0 60278 2700.00000 0 -8275422.276 -13930862.733 -19631790.575 10 0 60278 3600.00000 0 -5969622.462 -12890451.361 -21121778.314 10 0 60278 4500.00000 0 -3443867.011 -11970792.760 -22198976.883 10 0 60278 5400.00000 0 -755170.995 -11211113.843 -22842374.952 10 0 60278 6300.00000 0 2032496.761 -10640269.116 -23039490.262 10 0 60278 7200.00000 0 4850650.704 -10275542.567 -22786609.994 10 0 60278 8100.00000 0 7628916.926 -10121961.775 -22088853.488 10 0 60278 9000.00000 0 10297741.819 -10172152.388 -20960056.832 10 0 60278 9900.00000 0 12791066.737 -10406737.616 -19422482.833 10 0 60278 10800.00000 0 15048856.355 -10795263.730 -17506363.490 10 0 60278 11700.00000 0 17019375.163 -11297610.075 -15249285.592 10 0 60278 12600.00000 0 18661117.733 -11865821.379 -12695433.276 10 0 60278 13500.00000 0 19944313.646 -12446282.473 -9894704.104 10 0 60278 14400.00000 0 20851946.476 -12982141.351 -6901717.628 10 0 60278 15300.00000 0 21380247.067 -13415876.504 -3774737.339 10 0 60278 16200.00000 0 21538643.745 -13691899.071 -574528.219 10 0 60278 17100.00000 0 21349175.045 -13759079.581 2636827.007 10 0 60278 18000.00000 0 20845392.821 -13573093.035 5797129.445 10 0 60278 18900.00000 0 20070804.638 -13098484.383 8845260.251 10 0 60278 19800.00000 0 19076922.966 -12310368.805 11722348.924 10 0 60278 20700.00000 0 17921004.315 -11195696.832 14372892.199 10 0 60278 21600.00000 0 16663573.503 -9754032.718 16745803.562 10 0 60278 22500.00000 0 15365836.220 -7997814.566 18795375.140 10 0 60278 23400.00000 0 14087086.882 -5952085.993 20482135.609 10 0 60278 24300.00000 0 12882218.225 -3653710.363 21773589.893 10 0 60278 25200.00000 0 11799434.415 -1150099.380 22644828.545 10 0 60278 26100.00000 0 10878260.841 1502492.871 23078996.862 10 0 60278 27000.00000 0 10147931.591 4241042.100 23067615.982 10 0 60278 27900.00000 0 9626220.321 6998109.326 22610750.413 10 0 60278 28800.00000 0 9318762.531 9704385.391 21717018.628 10 0 60278 29700.00000 0 9218897.510 12291322.329 20403445.668 10 0 60278 30600.00000 0 9308037.399 14693745.521 18695159.002 10 0 60278 31500.00000 0 9556549.496 16852340.591 16624931.384 10 0 60278 32400.00000 0 9925116.857 18715913.354 14232576.994 10 0 60278 33300.00000 0 10366522.404 20243329.425 11564209.814 10 0 60278 34200.00000 0 10827783.705 21405052.340 8671376.025 10 0 60278 35100.00000 0 11252550.321 22184214.822 5610074.885 10 0 60278 36000.00000 0 11583663.659 22577176.574 2439685.322 10 0 60278 36900.00000 0 11765771.430 22593543.053 -778181.995 10 0 60278 37800.00000 0 11747885.347 22255642.192 -3980885.141 10 0 60278 38700.00000 0 11485772.086 21597479.124 -7105980.195 10 0 60278 39600.00000 0 10944073.697 20663211.480 -10092454.155 10 0 60278 40500.00000 0 10098064.516 19505208.772 -12881935.784 10 0 60278 41400.00000 0 8934966.741 18181777.817 -15419858.659 10 0 60278 42300.00000 0 7454765.571 16754651.006 -17656551.402 10 0 60278 43200.00000 0 5670486.305 15286344.966 -19548231.501 10 0 60278 44100.00000 0 3607919.139 13837502.979 -21057881.262 10 0 60278 45000.00000 0 1304801.407 12464335.456 -22155987.006 10 0 60278 45900.00000 0 -1190509.329 11216268.359 -22821125.827 10 0 60278 46800.00000 0 -3820815.874 10133900.368 -23040387.735 10 0 60278 47700.00000 0 -6522240.464 9247355.866 -22809624.735 10 0 60278 48600.00000 0 -9226670.936 8575103.343 -22133522.315 10 0 60278 49500.00000 0 -11864390.408 8123288.424 -21025492.765 10 0 60278 50400.00000 0 -14366779.278 7885608.159 -19507393.571 10 0 60278 51300.00000 0 -16668975.642 7843729.761 -17609077.902 10 0 60278 52200.00000 0 -18712382.506 7968233.460 -15367787.614 10 0 60278 53100.00000 0 -20446917.143 8220036.792 -12827402.463 10 0 60278 54000.00000 0 -21832909.479 8552237.187 -10037561.960 10 0 60278 54900.00000 0 -22842571.792 8912292.344 -7052678.727 10 0 60278 55800.00000 0 -23460980.529 9244443.964 -3930864.151 10 0 60278 56700.00000 0 -23686532.007 9492280.769 -732788.522 10 0 60278 57600.00000 0 -23530856.065 9601331.598 2479501.289 10 0 60278 58500.00000 0 -23018194.475 9521578.873 5643783.139 10 0 60278 59400.00000 0 -22184273.077 9209786.875 8698856.675 10 0 60278 60300.00000 0 -21074717.362 8631547.752 11585713.553 10 0 60278 61200.00000 0 -19743079.536 7762960.508 14248659.271 10 0 60278 62100.00000 0 -18248560.480 6591873.934 16636366.534 10 0 60278 63000.00000 0 -16653521.804 5118642.620 18702841.836 10 0 60278 63900.00000 0 -15020890.963 3356365.335 20408288.802 10 0 60278 64800.00000 0 -13411566.087 1330596.002 21719853.956 10 0 60278 65700.00000 0 -11881926.504 -921461.187 22612242.722 10 0 60278 66600.00000 0 -10481550.283 -3352240.415 23068195.584 10 0 60278 67500.00000 0 -9251231.472 -5905535.246 23078816.575 10 0 60278 68400.00000 0 -8221377.560 -8518583.394 22643748.425 10 0 60278 69300.00000 0 -7410852.451 -11124431.960 21771190.888 10 0 60278 70200.00000 0 -6826312.483 -13654488.434 20477761.099 10 0 60278 71100.00000 0 -6462063.282 -16041154.835 18788197.076 10 0 60278 72000.00000 0 -6300444.337 -18220438.309 16734907.977 10 0 60278 72900.00000 0 -6312726.705 -20134431.674 14357377.306 10 0 60278 73800.00000 0 -6460488.149 -21733561.760 11701427.858 10 0 60278 74700.00000 0 -6697409.981 -22978511.848 8818360.035 10 0 60278 75600.00000 0 -6971421.831 -23841737.069 5763977.904 10 0 60278 76500.00000 0 -7227105.245 -24308507.677 2597520.037 10 0 60278 77400.00000 0 -7408255.194 -24377434.242 -619485.206 10 0 60278 78300.00000 0 -7460490.884 -24060450.227 -3824418.081 10 0 60278 79200.00000 0 -7333804.076 -23382250.277 -6954795.876 10 0 60278 80100.00000 0 -6984934.844 -22379205.861 -9949506.249 10 0 60278 81000.00000 0 -6379471.295 -21097802.542 -12750019.769 10 0 60278 81900.00000 0 -5493580.994 -19592664.131 -15301555.942 10 0 60278 82800.00000 0 -4315297.348 -17924247.263 -17554177.613 10 0 60278 83700.00000 0 -2845303.229 -16156304.541 -19463790.082 10 0 60278 84600.00000 0 -1097175.823 -14353224.722 -20993023.362 10 0 60278 85500.00000 0 902919.844 -12577363.897 -22111978.540 10 0 60279 0.00000 0 3117077.093 -10886482.170 -22798822.364 10 0 60279 900.00000 0 5496999.785 -9331394.498 -23040217.975 10 0 60279 1800.00000 0 7985800.637 -7953937.989 -22831582.324 10 0 60279 2700.00000 0 10520173.443 -6785338.650 -22177166.785 10 0 60279 3600.00000 0 13032844.196 -5845048.168 -21089959.136 10 0 60279 4500.00000 0 15455198.264 -5140097.573 -19591410.440 10 0 60279 5400.00000 0 17719972.332 -4664993.093 -17710993.555 10 0 60279 6300.00000 0 19763897.569 -4402155.908 -15485603.548 10 0 60279 7200.00000 0 21530183.089 -4322884.184 -12958813.555 10 0 60279 8100.00000 0 22970736.058 -4388793.514 -10180002.426 10 0 60279 9000.00000 0 24048026.592 -4553671.761 -7203372.878 10 0 60279 9900.00000 0 24736521.074 -4765667.159 -4086880.923 10 0 60279 10800.00000 0 25023626.188 -4969714.918 -891098.677 10 0 60279 11700.00000 0 24910106.902 -5110098.271 2321966.429 10 0 60279 12600.00000 0 24409963.815 -5133034.984 5490072.548 10 0 60279 13500.00000 0 23549777.875 -4989180.150 8551941.211 10 0 60279 14400.00000 0 22367552.419 -4635940.362 11448429.361 10 0 60279 15300.00000 0 20911102.919 -4039502.945 14123654.037 10 0 60279 16200.00000 0 19236062.914 -3176496.357 16526049.541 10 0 60279 17100.00000 0 17403589.691 -2035213.431 18609338.705 10 0 60279 18000.00000 0 15477864.836 -616347.375 20333401.649 10 0 60279 18900.00000 0 13523492.401 1066789.628 21665027.646 10 0 60279 19800.00000 0 11602900.955 2988574.448 22578537.743 10 0 60279 20700.00000 0 9773855.137 5111895.711 23056267.991 10 0 60279 21600.00000 0 8087177.604 7389458.682 23088905.317 10 0 60279 22500.00000 0 6584773.637 9765520.570 22675670.298 10 0 60279 23400.00000 0 5298038.595 12177987.190 21824343.231 10 0 60279 24300.00000 0 4246713.123 14560787.248 20551132.244 10 0 60279 25200.00000 0 3438233.235 16846428.962 18880384.462 10 0 60279 26100.00000 0 2867602.656 18968635.733 16844143.709 10 0 60279 27000.00000 0 2517793.677 20864953.560 14481560.794 10 0 60279 27900.00000 0 2360661.293 22479223.143 11838165.054 10 0 60279 28800.00000 0 2358334.069 23763813.960 8965008.634 10 0 60279 29700.00000 0 2465025.072 24681526.505 5917697.734 10 0 60279 30600.00000 0 2629188.072 25207081.600 2755327.739 10 0 60279 31500.00000 0 2795928.940 25328132.150 -460658.232 10 0 60279 32400.00000 0 2909570.433 25045752.271 -3667665.593 10 0 60279 33300.00000 0 2916261.079 24374380.489 -6803175.775 10 0 60279 34200.00000 0 2766515.984 23341216.870 -9805979.902 10 0 60279 35100.00000 0 2417579.486 21985097.471 -12617392.973 10 0 60279 36000.00000 0 1835506.519 20354892.205 -15182422.796 10 0 60279 36900.00000 0 996871.191 18507493.146 -17450868.530 10 0 60279 37800.00000 0 -109973.060 16505478.353 -19378325.107 10 0 60279 38700.00000 0 -1484138.097 14414550.615 -20927071.777 10 0 60279 39600.00000 0 -3111984.944 12300860.469 -22066825.649 10 0 60279 40500.00000 0 -4967457.804 10228327.870 -22775344.172 10 0 60279 41400.00000 0 -7012955.255 8256076.780 -23038864.025 10 0 60279 42300.00000 0 -9200702.191 6436091.865 -22852367.567 10 0 60279 43200.00000 0 -11474564.434 4811196.450 -22219671.954 10 0 60279 44100.00000 0 -13772228.901 3413436.629 -21153339.914 10 0 60279 45000.00000 0 -16027656.547 2262938.514 -19674415.099 10 0 60279 45900.00000 0 -18173703.926 1367284.872 -17811988.625 10 0 60279 46800.00000 0 -20144802.309 721434.810 -15602606.960 10 0 60279 47700.00000 0 -21879581.293 308186.821 -13089534.496 10 0 60279 48600.00000 0 -23323326.703 99162.168 -10321887.060 10 0 60279 49500.00000 0 -24430170.256 56263.677 -7353654.951 10 0 60279 50400.00000 0 -25164920.272 133545.045 -4242636.186 10 0 60279 51300.00000 0 -25504458.479 279408.916 -1049302.020 10 0 60279 52200.00000 0 -25438646.656 439038.697 2164382.283 10 0 60279 53100.00000 0 -24970707.665 556960.028 5336157.940 10 0 60279 54000.00000 0 -24117067.615 579623.189 8404671.143 10 0 60279 54900.00000 0 -22906668.212 457897.726 11310646.885 10 0 60279 55800.00000 0 -21379780.112 149375.031 13998016.438 10 0 60279 56700.00000 0 -19586368.239 -379616.728 16414978.268 10 0 60279 57600.00000 0 -17584077.858 -1152368.505 18514973.886 10 0 60279 58500.00000 0 -15435925.055 -2180584.655 20257561.973 10 0 60279 59400.00000 0 -13207786.635 -3463665.067 21609176.254 10 0 60279 60300.00000 0 -10965791.898 -4988504.749 22543754.707 10 0 60279 61200.00000 0 -8773722.288 -6729819.551 23043229.831 10 0 60279 62100.00000 0 -6690524.159 -8650985.659 23097871.915 10 0 60279 63000.00000 0 -4768035.193 -10705359.936 22706479.445 10 0 60279 63900.00000 0 -3049016.518 -12838028.841 21876412.951 10 0 60279 64800.00000 0 -1565570.375 -14987916.345 20623470.900 10 0 60279 65700.00000 0 -338007.985 -17090166.493 18971608.540 10 0 60279 66600.00000 0 625785.553 -19078704.593 16952503.063 10 0 60279 67500.00000 0 1330462.432 -20888873.003 14604970.985 10 0 60279 68400.00000 0 1792793.638 -22460033.545 11974246.299 10 0 60279 69300.00000 0 2040736.749 -23738028.806 9111130.750 10 0 60279 70200.00000 0 2112027.472 -24677399.266 6071030.297 10 0 60279 71100.00000 0 2052352.580 -25243262.340 2912894.581 10 0 60279 72000.00000 0 1913180.087 -25412772.444 -301921.223 10 0 60279 72900.00000 0 1749337.798 -25176098.187 -3510850.492 10 0 60279 73800.00000 0 1616442.893 -24536872.625 -6651341.691 10 0 60279 74700.00000 0 1568292.577 -23512094.725 -9662092.348 10 0 60279 75600.00000 0 1654328.280 -22131483.573 -12484264.834 10 0 60279 76500.00000 0 1917283.524 -20436310.589 -15062658.148 10 0 60279 77400.00000 0 2391118.184 -18477757.706 -17346810.539 10 0 60279 78300.00000 0 3099329.858 -16314870.318 -19292009.109 10 0 60279 79200.00000 0 4053716.889 -14012191.561 -20860184.582 10 0 60279 80100.00000 0 5253648.029 -11637178.510 -22020671.927 10 0 60279 81000.00000 0 6685871.659 -9257510.384 -22750820.635 10 0 60279 81900.00000 0 8324873.949 -6938403.372 -23036441.943 10 0 60279 82800.00000 0 10133771.415 -4740046.256 -22872083.960 10 0 60279 83700.00000 0 12065700.084 -2715265.377 -22261129.585 10 0 60279 84600.00000 0 14065642.078 -907517.191 -21215716.045 10 0 60279 85500.00000 0 16072611.529 650707.876 -19756478.732 10 0 60280 0.00000 0 18022106.436 1939004.586 -17912125.995 10 0 60280 900.00000 0 19848723.073 2949650.955 -15718853.784 10 0 60280 1800.00000 0 21488819.427 3687661.361 -13219615.946 10 0 60280 2700.00000 0 22883118.618 4170298.199 -10463262.958 10 0 60280 3600.00000 0 23979140.252 4426064.547 -7503570.021 10 0 60280 4500.00000 0 24733359.262 4493224.670 -4398174.176 10 0 60280 5400.00000 0 25113002.618 4417917.949 -1207442.601 10 0 60280 6300.00000 0 25097410.318 4251948.584 2006704.944 10 0 60280 7200.00000 0 24678905.724 4050346.331 5181996.088 10 0 60280 8100.00000 0 23863141.178 3868802.398 8257004.938 10 0 60280 9000.00000 0 22668906.723 3761088.920 11172327.589 10 0 60280 9900.00000 0 21127411.994 3776570.297 13871712.340 10 0 60280 10800.00000 0 19281072.780 3957910.056 16303124.297 10 0 60280 11700.00000 0 17181853.646 4339068.172 18419725.800 10 0 60280 12600.00000 0 14889235.661 4943671.323 20180755.898 10 0 60280 13500.00000 0 12467892.877 5783822.998 21552294.245 10 0 60280 14400.00000 0 9985172.394 6859402.310 22507896.890 10 0 60280 15300.00000 0 7508480.335 8157880.547 23029093.577 10 0 60280 16200.00000 0 5102679.404 9654663.666 23105738.392 10 0 60280 17100.00000 0 2827603.045 11313947.866 22736207.789 10 0 60280 18000.00000 0 735786.594 13090054.775 21927442.183 10 0 60280 18900.00000 0 -1129492.764 14929193.404 20694829.628 10 0 60280 19800.00000 0 -2735787.524 16771578.674 19061932.348 10 0 60280 20700.00000 0 -4062598.376 18553821.347 17060059.384 10 0 60280 21600.00000 0 -5101993.202 20211492.574 14727691.111 10 0 60280 22500.00000 0 -5858700.072 21681758.271 12109764.048 10 0 60280 23400.00000 0 -6349669.028 22905974.523 9256827.166 10 0 60280 24300.00000 0 -6603119.490 23832135.784 6224083.622 10 0 60280 25200.00000 0 -6657111.612 24417072.483 3070334.586 10 0 60280 26100.00000 0 -6557700.373 24628304.118 -143155.554 10 0 60280 27000.00000 0 -6356749.346 24445467.445 -3353851.071 10 0 60280 27900.00000 0 -6109496.398 23861256.677 -6499170.401 10 0 60280 28800.00000 0 -5871974.915 22881832.917 -9517720.371 10 0 60280 29700.00000 0 -5698401.252 21526682.551 -12350513.495 10 0 60280 30600.00000 0 -5638641.273 19827927.971 -14942142.561 10 0 60280 31500.00000 0 -5735866.059 17829117.795 -17241887.268 10 0 60280 32400.00000 0 -6024499.087 15583546.422 -19204729.003 10 0 60280 33300.00000 0 -6528544.809 13152173.396 -20792251.807 10 0 60280 34200.00000 0 -7260372.050 10601230.574 -21973410.063 10 0 60280 35100.00000 0 -8220005.867 7999618.708 -22725146.566 10 0 60280 36000.00000 0 -9394959.296 5416204.064 -23032848.041 10 0 60280 36900.00000 0 -10760612.839 2917129.935 -22890628.902 10 0 60280 37800.00000 0 -12281125.654 563256.862 -22301437.941 10 0 60280 38700.00000 0 -13910839.391 -1592160.548 -21276986.573 10 0 60280 39600.00000 0 -15596114.311 -3505462.944 -19837501.154 10 0 60280 40500.00000 0 -17277518.877 -5144159.274 -18011305.660 10 0 60280 41400.00000 0 -18892279.054 -6488019.387 -15834244.526 10 0 60280 42300.00000 0 -20376882.778 -7529642.950 -13348958.732 10 0 60280 43200.00000 0 -21669728.898 -8274484.017 -10604031.092 10 0 60280 44100.00000 0 -22713708.560 -8740333.863 -7653019.181 10 0 60280 45000.00000 0 -23458610.454 -8956287.643 -4553396.380 10 0 60280 45900.00000 0 -23863249.465 -8961242.014 -1365422.998 10 0 60280 46800.00000 0 -23897230.514 -8801990.281 1849029.592 10 0 60280 47700.00000 0 -23542275.276 -8530997.886 5027678.368 10 0 60280 48600.00000 0 -22793058.127 -8203953.844 8109028.315 10 0 60280 49500.00000 0 -21657518.447 -7877202.126 11033549.590 10 0 60280 50400.00000 0 -20156638.152 -7605161.212 13744810.392 10 0 60280 51300.00000 0 -18323695.335 -7437839.630 16190545.198 10 0 60280 52200.00000 0 -16203026.082 -7418550.550 18323639.676 10 0 60280 53100.00000 0 -13848346.261 -7581919.758 20103015.424 10 0 60280 54000.00000 0 -11320702.408 -7952268.810 21494399.832 10 0 60280 54900.00000 0 -8686135.338 -8542439.670 22470968.398 10 0 60280 55800.00000 0 -6013151.271 -9353109.087 23013849.052 10 0 60280 56700.00000 0 -3370102.538 -10372621.217 23112480.189 10 0 60280 57600.00000 0 -822583.422 -11577346.173 22764816.332 10 0 60280 58500.00000 0 1569053.918 -12932551.078 21977377.522 10 0 60280 59400.00000 0 3751963.152 -14393749.573 20765140.800 10 0 60280 60300.00000 0 5682755.347 -15908476.295 19151274.460 10 0 60280 61200.00000 0 7329058.656 -17418415.292 17166718.181 10 0 60280 62100.00000 0 8670621.809 -18861796.441 14849614.682 10 0 60280 63000.00000 0 9699915.149 -20175962.166 12244601.190 10 0 60280 63900.00000 0 10422203.081 -21299998.829 9401971.777 10 0 60280 64800.00000 0 10855083.486 -22177323.295 6376724.384 10 0 60280 65700.00000 0 11027511.733 -22758115.951 3227509.044 10 0 60280 66600.00000 0 10978348.706 -23001496.596 15496.499 10 0 60280 67500.00000 0 10754492.820 -22877349.500 -3196811.404 10 0 60280 68400.00000 0 10408674.224 -22367717.869 -6346806.127 10 0 60280 69300.00000 0 9997004.551 -21467705.662 -9373006.855 10 0 60280 70200.00000 0 9576386.845 -20185845.401 -12216279.252 10 0 60280 71100.00000 0 9201897.007 -18543913.407 -14821012.798 10 0 60280 72000.00000 0 8924250.035 -16576197.719 -17136231.373 10 0 60280 72900.00000 0 8787461.040 -14328247.779 -19116613.141 10 0 60280 73800.00000 0 8826802.917 -11855157.532 -20723397.628 10 0 60280 74700.00000 0 9067149.771 -9219454.063 -21925160.410 10 0 60280 75600.00000 0 9521778.403 -6488681.014 -22698438.916 10 0 60280 76500.00000 0 10191680.131 -3732779.238 -23028196.217 10 0 60280 77400.00000 0 11065412.905 -1021375.842 -22908113.410 10 0 60280 78300.00000 0 12119500.064 1578903.602 -22340705.096 10 0 60280 79200.00000 0 13319358.289 4006986.261 -21337256.375 10 0 60280 80100.00000 0 14620714.392 6209659.488 -19917583.678 10 0 60280 81000.00000 0 15971449.570 8143538.388 -18109625.535 10 0 60280 81900.00000 0 17313791.544 9776612.357 -15948872.940 10 0 60280 82800.00000 0 18586760.370 11089307.879 -13477652.224 10 0 60280 83700.00000 0 19728763.302 12075025.865 -10744276.289 10 0 60280 84600.00000 0 20680228.241 12740134.403 -7802082.529 10 0 60280 85500.00000 0 21386164.306 13103420.927 -4708377.849 99